Weather Roundup
Issued by NWS

Home | Current Version | Previous Version | Text Only | Print | Product List | Glossary On
Versions: 1 2 3 4 5 6 7 8 9 10 11 12 13 14 15 16 17 18 19 20 21 22 23 24 25 26 27 28 29 30 31 32 33 34 35 36 37 38 39 40 41 42 43 44 45 46 47 48 49 50
000
NZUS93 KARX 060710
HRRWXR

CURRENT HOURLY OBSERVATIONS ACROSS
MUCH OF THE UPPER MISSISSIPPI VALLEY
NATIONAL WEATHER SERVICE LA CROSSE WI
200 AM CDT MON JUL 06 2015


...SOUTHEAST MINNESOTA...


CITY           SKY/WX    TMP DP  RH WIND       PRES   REMARKS
ROCHESTER      CLOUDY    72  68  87 S15       29.85F
ROCHESTER/MAYO FAIR      72  68  88 SE10G18   29.84F
WINONA         CLOUDY    73  66  78 SE6       29.85F
AUSTIN         CLOUDY    73  68  83 S12       29.85S
ALBERT LEA     CLOUDY    75  66  73 S13G22    29.81F
DODGE CENTER   CLOUDY    73  66  78 S18G24    29.83F
PRESTON        MOCLDY    70  66  88 S13       29.88F FOG
OWATONNA       CLOUDY    75  66  73 S16G26    29.80F
FARIBAULT      CLOUDY    73  68  83 S8        29.80F
$$

...ELSEWHERE IN MINNESOTA...


CITY           SKY/WX    TMP DP  RH WIND       PRES   REMARKS
MINNEAPOLIS    LGT RAIN  74  70  87 SE7       29.78F FOG
INTNL FALLS    CLOUDY    52  52 100 CALM      29.87S FOG
DULUTH         CLOUDY    67  65  93 W9        29.85F FOG
RED WING       LGT RAIN  75  68  78 SE7       29.80F
REDWOOD FALLS  TSTM      70  69  97 NE9       29.78F FOG
MANKATO        CLOUDY    75  66  73 S13       29.75F
WORTHINGTON    CLOUDY    70  64  83 N8        29.82R
FAIRMONT       CLOUDY    73  64  73 S15       29.76F
$$

...SOUTHWEST WISCONSIN...


CITY           SKY/WX    TMP DP  RH WIND       PRES   REMARKS
LA CROSSE      MOCLDY    74  67  78 S13       29.87F
PRAIRIE DU CHI PTCLDY    72  64  77 E6        29.92R
BOSCOBEL       CLEAR     72  65  78 S5        29.94S HAZE
LONE ROCK      CLEAR     70  63  78 CALM      29.96R
PLATTEVILLE    CLEAR     67  65  92 SE8       29.97R
FORT MC COY    MOCLDY    71  63  76 S7        29.92F
CAMP DOUGLAS   PTCLDY    70  70 100 SE6       29.92F
VIROQUA        FAIR      69  66  88 S9        29.93F
WIS DELLS      PTCLDY    68  62  81 SW7       29.97R
$$

...ELSEWHERE IN WISCONSIN...


CITY           SKY/WX    TMP DP  RH WIND       PRES   REMARKS
MILWAUKEE      PTCLDY    67  59  75 S3        30.00R
MADISON        MOCLDY    72  63  73 S9        29.98R
GREEN BAY      PTCLDY    67  62  84 S5        29.97R HAZE
EAU CLAIRE     CLOUDY    73  65  75 SE5       29.84F
BLACK RVR FLS  FAIR      71  65  81 S5        29.89F
MEDFORD        CLOUDY    68  64  86 S10       29.91F
WAUSAU         MOCLDY    71  64  78 S7        29.92F
WIS RAPIDS     MOCLDY    69  63  81 S5        29.95F
MARSHFIELD     CLOUDY    68  62  81 S8        29.92F
RICE LAKE      CLOUDY    70  66  88 CALM      29.87F
$$

...NORTHEAST IOWA...


CITY           SKY/WX    TMP DP  RH WIND       PRES   REMARKS
DECORAH          N/A    N/A N/A N/A MISG        N/A
MASON CITY     CLOUDY    72  68  87 S13       29.85S
CHARLES CITY   CLOUDY    73  72  94 S13G21    29.89R
OELWEIN        PTCLDY    70  70 100 S10       29.93R FOG
$$

...ELSEWHERE IN IOWA...


CITY           SKY/WX    TMP DP  RH WIND       PRES   REMARKS
DES MOINES     CLOUDY    77  71  82 S12       29.85S
IOWA CITY      CLEAR     69  67  93 SE7       29.93F FOG
FORT DODGE     CLOUDY    75  70  83 S13G22    29.82F
$$

...NORTHERN ILLINOIS...


CITY           SKY/WX    TMP DP  RH WIND       PRES   REMARKS
CHICAGO-OHARE  CLEAR     69  62  78 S7        29.99S
CHICAGO-MIDWAY CLEAR     74  63  68 S6        30.00S
MOLINE         CLEAR     69  65  86 VRB3      29.95F FOG
ROCKFORD       PTCLDY    66  62  87 S7        30.00S
PEORIA         CLEAR     72  64  76 S7        30.00S
$$

NOTE: "FAIR" INDICATES FEW OR NO CLOUDS BELOW 12,000 FEET WITH NO
SIGNIFICANT WEATHER AND/OR OBSTRUCTIONS TO VISIBILITY. WIND
SPEEDS ARE IN MILES-PER-HOUR.



USA.gov is the U.S. government's official web portal to all federal, state and local government web resources and services.